EW2461 Weather Reports


time (UTC)temp
F
wind
direction
speed
knots
gust
knots
rain 1hr
in
rain 24hr
in
rain mn
in
humidity
%
barometer
mb
20260505095434 46 190 1.7 8.7 0.00 0.00 0.00 90 1011.4
20260505094424 46 215 1.7 6.1 0.00 0.00 0.00 90 1011.2
20260505092321 46 179 1.7 7.8 0.00 0.00 0.00 90 1011.1
20260505090148 46 250 2.6 9.6 0.00 0.00 0.00 89 1011.1
20260505085132 46 209 1.7 7.8 0.00 0.00 0.00 89 1011.0
20260505084118 46 252 1.7 7.8 0.00 0.00 0.00 89 1011.1
20260505083117 46 184 1.7 7.0 0.00 0.00 0.00 89 1011.1
20260505082128 46 232 1.7 7.0 0.00 0.00 0.00 89 1011.2
20260505081104 46 215 1.7 7.0 0.00 0.00 0.00 89 1011.3
20260505080116 46 147 1.7 7.0 0.00 0.00 0.00 89 1011.2
20260505075054 46 267 0.9 7.0 0.00 0.00 0.00 89 1011.2
20260505074023 46 314 1.7 7.0 0.00 0.00 0.00 89 1011.0
20260505071837 46 159 0.9 7.0 0.00 0.00 0.00 88 1011.0
20260505065659 46 225 0.9 4.3 0.00 0.00 0.00 88 1010.8
20260505064724 46 257 0.9 7.0 0.00 0.00 0.00 88 1010.6
20260505063722 46 216 0.9 7.0 0.00 0.00 0.00 88 1010.4
20260505062719 46 246 0.0 5.2 0.00 0.00 0.00 87 1010.4
20260505061655 46 249 0.9 5.2 0.00 0.00 0.00 87 1010.4
20260505055508 46 232 0.9 4.3 0.00 0.00 0.00 87 1010.4
20260505054454 46 224 0.9 5.2 0.00 0.00 0.00 86 1010.3
20260505053512 46 203 1.7 5.2 0.00 0.00 0.00 86 1010.4
20260505052529 46 144 0.9 5.2 0.00 0.00 0.00 86 1010.4
20260505051519 46 165 0.9 7.0 0.00 0.00 0.00 86 1010.2
20260505050448 46 225 1.7 7.0 0.00 0.00 0.00 86 1010.5
20260505041327 46 238 1.7 7.8 0.00 0.00 0.00 85 1010.6
20260505040344 46 273 1.7 7.8 0.00 0.00 0.00 84 1010.6
20260505035311 46 224 1.7 7.8 0.00 0.01 0.00 84 1010.6
20260505033123 47 180 1.7 8.7 0.00 0.04 0.00 83 1010.4
20260505032109 47 224 2.6 8.7 0.00 0.07 0.00 83 1010.3
20260505031054 47 266 1.7 9.6 0.00 0.10 0.00 83 1010.1
20260505030039 47 285 2.6 9.6 0.00 0.10 0.00 82 1010.0
20260505023823 48 233 2.6 8.7 0.00 0.15 0.10 81 1009.9
20260505022829 48 280 3.5 9.6 0.00 0.18 0.10 81 1009.7
20260505021838 48 264 3.5 11.3 0.00 0.20 0.10 82 1009.7
20260505020804 48 271 3.5 9.6 0.00 0.23 0.10 82 1009.7
20260505015750 48 276 3.5 9.6 0.00 0.26 0.10 82 1009.6
20260505014753 48 236 4.3 8.7 0.00 0.29 0.10 83 1009.6
20260505013740 48 216 2.6 9.6 0.00 0.33 0.10 83 1009.5
20260505011640 48 249 2.6 9.6 0.00 0.40 0.10 83 1009.4
20260505010636 47 282 1.7 7.8 0.00 0.44 0.10 84 1009.3
20260505005638 47 177 1.7 7.8 0.00 0.48 0.10 84 1009.3
20260505002407 47 232 2.6 7.8 0.00 0.62 0.10 84 1008.8
20260505001334 47 263 2.6 7.0 0.00 0.66 0.10 84 1008.6
20260505000312 47 224 2.6 11.3 0.00 0.70 0.10 83 1008.5
20260504234209 47 290 2.6 9.6 0.00 0.77 0.10 83 1008.3
20260504233144 47 242 3.5 9.6 0.00 0.81 0.10 82 1007.9
20260504230949 47 248 2.6 8.7 0.00 0.88 0.10 82 1007.7
20260504225946 47 278 3.5 8.7 0.00 0.92 0.10 81 1007.4
20260504224958 48 283 2.6 8.7 0.00 0.94 0.10 81 1007.3
20260504223957 48 261 3.5 9.6 0.00 0.96 0.10 80 1007.2
20260504221833 49 237 2.6 10.4 0.00 0.98 0.10 79 1006.8
20260504220834 49 225 3.5 11.3 0.00 0.98 0.10 79 1006.7
20260504215820 49 251 3.5 11.3 0.00 0.98 0.10 78 1006.4
20260504214759 50 282 4.3 10.4 0.00 0.98 0.10 77 1006.5
20260504213738 50 270 3.5 11.3 0.00 0.98 0.10 77 1006.6
20260504211540 51 224 3.5 12.2 0.00 0.98 0.10 78 1006.6
20260504210505 50 229 1.7 8.7 0.00 0.98 0.10 79 1006.7
20260504204330 49 225 2.6 10.4 0.00 0.98 0.10 79 1007.0
20260504202240 49 254 2.6 8.7 0.00 0.98 0.10 78 1007.3
20260504201253 49 248 2.6 8.7 0.00 0.98 0.10 78 1007.1
20260504195131 50 247 4.3 14.8 0.00 0.98 0.10 77 1007.2
20260504194057 50 221 3.5 13.9 0.00 0.98 0.10 77 1007.1
20260504191847 51 248 5.2 12.2 0.00 1.01 0.10 73 1006.8
20260504190825 54 259 5.2 12.2 0.00 1.03 0.10 69 1006.6
20260504185809 54 281 5.2 11.3 0.00 1.05 0.10 69 1006.5
20260504184834 54 279 4.3 12.2 0.00 1.08 0.10 68 1006.3
20260504182655 54 264 5.2 15.6 0.00 1.14 0.10 68 1006.7
20260504180512 54 234 4.3 11.3 0.00 1.20 0.10 69 1006.6
20260504175440 54 200 5.2 11.3 0.00 1.22 0.10 68 1006.6
20260504174432 54 224 4.3 13.9 0.00 1.24 0.10 70 1006.5
20260504173417 53 250 6.1 13.9 0.00 1.25 0.10 69 1006.6
20260504172432 53 284 5.2 19.1 0.00 1.28 0.10 72 1006.7
20260504171427 52 234 5.2 19.1 0.00 1.30 0.10 71 1006.8
20260504170415 52 278 6.1 16.5 0.00 1.33 0.10 71 1007.0
20260504160155 52 257 5.2 12.2 0.00 1.61 0.10 74 1007.4
20260504150134 51 261 5.2 12.2 0.00 2.01 0.10 74 1007.8
20260504141048 50 246 4.3 12.2 0.00 2.34 0.10 76 1007.9
20260504110136 45 236 7.0 19.1 0.00 2.56 0.10 80 1006.4